Location: Spangle
(47.4302°N, 117.3779°W)
Time: 11:47:33
(UTC+00:00)

ISS - Pass Details

Date: 24 April 2026
Orbit: 414 x 424 km, 51.6° (Epoch: 11 May)

Event Time Altitude Azimuth Distance (km) Brightness Sun altitude
Exits shadow 11:16:00 28° 243° (WSW) 826 -2.9 -13.9°
Maximum altitude 11:17:39 88° 164° (SSE) 424 -3.8 -13.7°
Drops below altitude 10° 11:21:03 10° 66° (ENE) 1,506 0.4 -13.2°
Sets 11:23:09 0° 66° (ENE) 2,375 1.8 -12.9°
